Home > Weather > Gloucester > Past weeks

Flag for USA Past Weather in Gloucester, Massachusetts, USA — Yesterday and Last 2 Weeks

Now
74 °F

Clear.


Feels Like: 73 °F
Forecast: 73 / 85 °F
Wind: 8 mph from West

Location: Beverly Municipal Airport

Current Time: Jul 26, 2016 at 4:26:37 AM

Latest Report: Jul 26, 2016 at 3:53 AM


Visibility: 10 mi

Pressure: 29.73 "Hg

Humidity: 88%

Dew Point: 70 °F

Location of GloucesterLocation

Past Weather in Gloucester — Graph

°F

Gloucester Temperature Yesterday

Maximum temperature yesterday: 87 °F (at 3:53 PM)
Minimum temperature yesterday: 58 °F (at 4:53 AM)
Average temperature yesterday: 76 °F

High & Low Weather Summary for the Past Weeks

 TemperatureHumidityPressure
High96 °F (Jul 22, 5:53 PM)100% (Jul 11, 2:00 AM)30.17 "Hg (Jul 11, 2:00 AM)
Low57 °F (Jul 12, 5:53 AM)26% (Jul 21, 2:53 PM)29.67 "Hg (Jul 22, 5:53 PM)
Average76 °F67%29.93 "Hg
* Reported Jul 11 2:00 AM — Jul 26 2:53 AM, Gloucester, Weather by CustomWeather, © 2016

Note: Actual official high and low records may vary slightly from our data, if they occured in-between our weather recording intervals... More about our weather records

Advertising

Gloucester Weather History for the Previous 24 Hours

Scroll right to see more
 ConditionsComfort  
Time TempWeatherWind HumidityBarometerVisibility
2:53 AM
Tue, Jul 26
76 °FClear.7 mph82%29.72 "Hg10 mi
1:53 AM76 °FClear.7 mph85%29.72 "Hg10 mi
12:53 AM78 °FClear.7 mph79%29.72 "Hg10 mi
11:53 PM
Mon, Jul 25
79 °FClear.8 mph77%29.73 "Hg10 mi
10:53 PM79 °FClear.6 mph77%29.73 "Hg10 mi
9:53 PM80 °FClear.9 mph71%29.75 "Hg10 mi
8:53 PM80 °FSunny.6 mph67%29.75 "Hg10 mi
7:53 PM82 °FBroken clouds.7 mph60%29.75 "Hg10 mi
6:53 PM85 °FSunny.13 mph55%29.75 "Hg10 mi
5:53 PM85 °FSunny.9 mph61%29.74 "Hg10 mi
4:53 PM86 °FScattered clouds.9 mph61%29.75 "Hg10 mi
3:53 PM87 °FBroken clouds.7 mph59%29.78 "Hg10 mi
2:53 PM86 °FBroken clouds.7 mph59%29.81 "Hg10 mi
1:53 PM86 °FSunny.10 mph57%29.83 "Hg10 mi
12:53 PM85 °FSunny.9 mph53%29.85 "Hg10 mi
11:53 AM84 °FSunny.10 mph46%29.88 "Hg10 mi
10:53 AM82 °FSunny.9 mph46%29.88 "Hg10 mi
9:53 AM81 °FSunny.6 mph44%29.90 "Hg10 mi
8:53 AM77 °FSunny.6 mph56%29.91 "Hg10 mi
7:53 AM70 °FSunny.No wind76%29.92 "Hg10 mi
6:53 AM64 °FSunny.No wind94%29.93 "Hg10 mi
5:53 AM61 °FClear.No wind93%29.93 "Hg10 mi
4:53 AM58 °FClear.No wind93%29.92 "Hg10 mi
Weather by CustomWeather, © 2016

See weather overviewHow to use our weather pages